Location: Unspecified
(0.0000°N, 0.0000°E)
Time: 11:30:47
(UTC+00:00)

Hubble Space Telescope - Visible Passes

Search period start: 26 April 2018 00:00
Search period end: 06 May 2018 00:00
Orbit: 537 x 541 km, 28.5° (Epoch: 25 April)

Date Brightness Start Highest point End Pass type
(mag) Time Alt. Az. Time Alt. Az. Time Alt. Az.
26 Apr 3.6 03:37:12 15° E 03:37:12 15° E 03:38:05 10° E visible
26 Apr 1.7 05:12:37 15° W 05:15:22 31° SSW 05:19:04 10° SSE visible
27 Apr 2.1 05:03:44 19° WSW 05:05:05 23° SSW 05:08:24 10° SSE visible
28 Apr 2.5 04:54:48 17° SSW 04:54:50 17° SSW 04:57:32 10° SSE visible
29 Apr 3.1 04:45:44 11° S 04:45:44 11° S 04:46:18 10° S visible
